Date String (YYYY-MM-DD hh:mm:ss) UTC,Instrument flags,absolute air pressure of the measurement (hPa),sample flow rate (lpm),inlet stack bypass flow (lpm),air temperature of the measurement (°C),ambient temperature measured by the external sensor (°C),aerosol sample conditioner tube jacket temperature (°C),OPC LED temperature (°C),internal box temperature (°C),relative humidity of the measurement (%),span deviation,mass concentration of particles derived from Lorenz-Mie calculation of OPC scattering (μg/m³),mass concentration of particles derived from Lorenz-Mie calculation of OPC scattering (μg/m³),mass concentration of particles derived from Lorenz-Mie calculation of OPC scattering (μg/m³)
DateTimeUTC,F1_M11,P_M11,Q1_M11,Q2_M11,T1_M11,T2_M11,T3_M11,T4_M11,T5_M11,U1_M11,ZSPAN_M11,X2_M11,X0_M11,X1_M11
2023-09-28 01:00:00,SystemResetWarning,0828.2,5.01,000.00,027.9,023.9,000.0,036.3,029.5,16.1,0002.4,0006.37,0019.52,0005.22
2023-09-28 01:01:00,SystemResetWarning,0828.2,5.00,000.00,027.8,024.2,000.0,036.3,029.4,16.2,0003.4,0006.35,0019.21,0005.23
2023-09-28 01:02:00,SystemResetWarning,0828.2,5.00,000.00,027.8,024.7,000.0,036.3,029.4,16.3,0003.1,0006.34,0019.57,0005.21
2023-09-28 01:03:00,SystemResetWarning,0828.2,5.00,000.00,027.8,025.1,000.0,036.3,029.5,16.2,0002.8,0006.37,0019.71,0005.22
2023-09-28 01:04:00,SystemResetWarning,0828.2,5.00,000.00,027.8,025.6,000.0,036.3,029.6,16.3,0003.0,0006.43,0020.75,0005.22
2023-09-28 01:05:00,SystemResetWarning,0828.2,5.00,000.00,027.8,026.0,000.0,036.3,029.6,16.3,0003.3,0006.47,0021.62,0005.22
2023-09-28 01:06:00,SystemResetWarning,0828.2,5.00,000.00,027.9,026.3,000.0,036.3,029.7,16.3,0003.1,0006.48,0022.17,0005.23
2023-09-28 01:07:00,SystemResetWarning,0828.2,4.99,000.00,027.9,026.6,000.0,036.3,029.8,16.1,0002.8,0006.56,0022.66,0005.23
2023-09-28 01:08:00,SystemResetWarning,0828.2,5.00,000.00,028.0,026.8,000.0,036.3,029.9,16.0,0002.3,0006.56,0023.02,0005.22
2023-09-28 01:09:00,SystemResetWarning,0828.1,5.00,000.00,028.1,027.0,000.0,036.4,030.0,15.9,0001.3,0006.57,0022.85,0005.22
2023-09-28 01:10:00,SystemResetWarning,0828.2,4.99,000.00,028.1,026.9,000.0,036.4,030.1,15.9,0001.8,0006.60,0022.38,0005.22
2023-09-28 01:11:00,SystemResetWarning,0828.1,5.00,000.00,028.1,025.3,000.0,036.4,029.8,15.9,0001.9,0006.62,0021.75,0005.22
2023-09-28 01:12:00,SystemResetWarning,0828.1,5.01,000.00,028.0,023.9,000.0,036.3,029.6,16.0,0002.3,0006.66,0021.98,0005.20
2023-09-28 01:13:00,SystemResetWarning,0828.1,5.01,000.00,027.9,023.9,000.0,036.3,029.5,16.1,0001.1,0006.73,0022.14,0005.22
2023-09-28 01:14:00,SystemResetWarning,0828.0,5.01,000.00,027.8,024.3,000.0,036.3,029.3,16.2,0002.4,0006.71,0022.56,0005.22
2023-09-28 01:15:00,SystemResetWarning,0828.1,4.99,000.00,027.8,024.7,000.0,036.3,029.4,16.3,0002.3,0006.64,0021.73,0005.20
2023-09-28 01:16:00,SystemResetWarning,0828.0,5.00,000.00,027.8,025.2,000.0,036.3,029.5,16.3,0001.3,0006.64,0020.40,0005.19
2023-09-28 01:17:00,SystemResetWarning,0828.0,5.01,000.00,027.8,025.6,000.0,036.3,029.6,16.3,0001.8,0006.66,0020.17,0005.20
2023-09-28 01:18:00,SystemResetWarning,0828.1,5.01,000.00,027.9,026.0,000.0,036.3,029.7,16.4,0002.1,0006.67,0019.27,0005.20
2023-09-28 01:19:00,SystemResetWarning,0828.0,5.00,000.00,027.9,026.3,000.0,036.3,029.7,16.3,0002.0,0006.70,0018.94,0005.19
2023-09-28 01:20:00,SystemResetWarning,0828.1,4.99,000.00,027.9,026.6,000.0,036.3,029.8,16.3,0002.7,0006.77,0018.11,0005.19
2023-09-28 01:21:00,SystemResetWarning,0828.1,5.00,000.00,028.0,026.8,000.0,036.3,029.9,16.1,0002.3,0006.74,0018.40,0005.18
2023-09-28 01:22:00,SystemResetWarning,0828.1,5.00,000.00,028.1,027.0,000.0,036.4,030.0,16.0,0001.7,0006.67,0019.37,0005.16
2023-09-28 01:23:00,SystemResetWarning,0828.1,5.01,000.00,028.1,027.1,000.0,036.4,030.0,16.0,0002.8,0006.62,0019.54,0005.15
2023-09-28 01:24:00,SystemResetWarning,0828.1,5.00,000.00,028.1,025.9,000.0,036.4,029.9,16.0,0003.1,0006.58,0019.21,0005.13
2023-09-28 01:25:00,SystemResetWarning,0828.1,5.00,000.00,028.0,024.1,000.0,036.3,029.7,16.0,0003.0,0006.59,0018.42,0005.13
2023-09-28 01:26:00,SystemResetWarning,0828.1,5.01,000.00,028.0,023.8,000.0,036.3,029.5,16.1,0003.1,0006.65,0018.40,0005.13
2023-09-28 01:27:00,SystemResetWarning,0828.1,5.00,000.00,027.9,024.1,000.0,036.2,029.3,16.2,0003.3,0006.64,0018.33,0005.12
2023-09-28 01:28:00,SystemResetWarning,0828.1,5.00,000.00,027.8,024.5,000.0,036.3,029.4,16.3,0002.8,0006.59,0018.14,0005.11
2023-09-28 01:29:00,SystemResetWarning,0828.1,5.00,000.00,027.8,025.0,000.0,036.3,029.4,16.4,0002.4,0006.56,0017.36,0005.10
2023-09-28 01:30:00,SystemResetWarning,0828.1,5.00,000.00,027.8,025.4,000.0,036.3,029.5,16.3,0003.3,0006.53,0017.03,0005.10
2023-09-28 01:31:00,SystemResetWarning,0828.1,5.00,000.00,027.8,025.8,000.0,036.3,029.6,16.3,0004.1,0006.45,0017.37,0005.10
2023-09-28 01:32:00,SystemResetWarning,0828.1,5.00,000.00,027.8,026.2,000.0,036.3,029.7,16.2,0004.2,0006.45,0017.99,0005.11
2023-09-28 01:33:00,SystemResetWarning,0828.1,4.99,000.00,027.9,026.5,000.0,036.3,029.8,16.1,0003.5,0006.46,0017.73,0005.11
2023-09-28 01:34:00,SystemResetWarning,0828.1,5.00,000.00,027.9,026.7,000.0,036.3,029.8,16.2,0004.2,0006.46,0018.58,0005.12
2023-09-28 01:35:00,SystemResetWarning,0828.1,5.00,000.00,028.0,026.9,000.0,036.3,029.9,16.1,0004.1,0006.43,0019.27,0005.13
2023-09-28 01:36:00,SystemResetWarning,0828.2,5.00,000.00,028.1,027.1,000.0,036.4,030.0,16.0,0004.3,0006.44,0019.71,0005.13
2023-09-28 01:37:00,SystemResetWarning,0828.1,5.00,000.00,028.1,027.2,000.0,036.4,030.0,16.0,0004.4,0006.42,0019.82,0005.14
2023-09-28 01:38:00,SystemResetWarning,0828.1,4.98,000.00,028.2,026.6,000.0,036.4,030.0,16.0,0004.3,0006.42,0019.65,0005.16
2023-09-28 01:39:00,SystemResetWarning,0828.2,5.01,000.00,028.1,025.0,000.0,036.4,029.9,16.0,0003.7,0006.39,0019.34,0005.17
2023-09-28 01:40:00,SystemResetWarning,0828.1,5.01,000.00,028.1,024.7,000.0,036.3,029.8,15.9,0003.7,0006.37,0019.97,0005.17
2023-09-28 01:41:00,SystemResetWarning,0828.1,5.00,000.00,028.0,024.9,000.0,036.3,029.6,15.9,0003.5,0006.34,0020.20,0005.17
2023-09-28 01:42:00,SystemResetWarning,0828.1,4.99,000.00,028.0,025.3,000.0,036.4,029.6,16.0,0001.5,0006.35,0019.87,0005.18
2023-09-28 01:43:00,SystemResetWarning,0828.1,5.00,000.00,028.0,025.6,000.0,036.4,029.7,15.9,0004.2,0006.38,0019.70,0005.19
2023-09-28 01:44:00,SystemResetWarning,0828.1,5.01,000.00,028.0,026.0,000.0,036.4,029.8,16.0,0004.3,0006.43,0020.19,0005.18
2023-09-28 01:45:00,SystemResetWarning,0828.1,4.99,000.00,028.0,026.3,000.0,036.4,029.8,16.0,0004.4,0006.45,0019.18,0005.19
2023-09-28 01:46:00,SystemResetWarning,0828.2,5.00,000.00,028.1,026.6,000.0,036.4,029.9,16.3,0003.2,0006.43,0018.30,0005.19
2023-09-28 01:47:00,SystemResetWarning,0828.2,5.00,000.00,028.1,026.8,000.0,036.4,030.0,16.2,0003.1,0006.41,0017.90,0005.19
2023-09-28 01:48:00,SystemResetWarning,0828.2,5.00,000.00,028.1,027.0,000.0,036.5,030.0,16.1,0003.3,0006.42,0017.85,0005.19
2023-09-28 01:49:00,SystemResetWarning,0828.2,5.00,000.00,028.2,026.8,000.0,036.5,030.1,15.9,0003.2,0006.41,0018.79,0005.18
2023-09-28 01:50:00,SystemResetWarning,0828.2,5.00,000.00,028.2,025.0,000.0,036.4,029.9,16.0,0002.2,0006.40,0019.01,0005.17
2023-09-28 01:51:00,SystemResetWarning,0828.1,5.01,000.00,028.1,023.7,000.0,036.4,029.6,16.2,0000.0,0006.42,0019.18,0005.16
2023-09-28 01:52:00,SystemResetWarning,0828.1,5.01,000.00,028.0,023.8,000.0,036.3,029.5,16.0,0001.1,0006.43,0019.30,0005.17
2023-09-28 01:53:00,SystemResetWarning,0828.1,5.01,000.00,027.9,024.1,000.0,036.3,029.3,16.0,0002.3,0006.43,0019.65,0005.15
2023-09-28 01:54:00,SystemResetWarning,0828.1,5.00,000.00,027.8,024.6,000.0,036.3,029.4,16.2,0000.0,0006.44,0019.66,0005.16
2023-09-28 01:55:00,SystemResetWarning,0828.1,5.00,000.00,027.8,025.1,000.0,036.3,029.5,16.4,0000.0,0006.39,0018.41,0005.17
2023-09-28 01:56:00,SystemResetWarning,0828.1,5.00,000.00,027.8,025.5,000.0,036.3,029.6,16.5,0000.0,0006.37,0018.40,0005.18
2023-09-28 01:57:00,SystemResetWarning,0828.1,5.00,000.00,027.8,025.9,000.0,036.3,029.6,16.4,0000.0,0006.39,0018.82,0005.18
2023-09-28 01:58:00,SystemResetWarning,0828.1,5.00,000.00,027.9,026.2,000.0,036.3,029.7,16.2,0000.0,0006.41,0020.15,0005.19
2023-09-28 01:59:00,SystemResetWarning,0828.2,5.00,000.00,027.9,026.4,000.0,036.4,029.8,16.2,0000.0,0006.41,0020.54,0005.18
